ARG1493 SASA-SABE

Flight info

Callsign ARG1493
Flight time 1h 41m
Altitude FL390
Route MUBO2G PONPI UT681 PUBER UL550 ROS UT672 MULTA UW24 SNT SNT8Q
Aircraft B38M/M-SDE2E3FGHIRWXY/LB1

Departure

Time 2026-04-16 13:37
Airport Martín Miguel de Güemes International Airport (SASA)

Arrival

Time 2026-04-16 15:18
Airport Aeroparque Jorge Newbery (SABE)
Time Latitude Longitude Altitude Speed Heading
2026-04-16 13:14 -24.84472 -65.47899 4019 ft 0 kts 22°
2026-04-16 13:28 -24.84477 -65.47902 4019 ft 4 kts 19°
2026-04-16 13:28 -24.84501 -65.47903 4019 ft 4 kts 333°
2026-04-16 13:29 -24.84517 -65.47885 4019 ft 2 kts 293°
2026-04-16 13:29 -24.84518 -65.47882 4020 ft 2 kts 292°
2026-04-16 13:33 -24.84517 -65.47885 4019 ft 1 kts 292°
2026-04-16 13:33 -24.84513 -65.47897 4019 ft 2 kts 292°
2026-04-16 13:34 -24.84505 -65.47917 4019 ft 3 kts 292°
2026-04-16 13:34 -24.84498 -65.47946 4019 ft 5 kts 271°
2026-04-16 13:34 -24.84505 -65.47984 4019 ft 6 kts 254°
2026-04-16 13:34 -24.84519 -65.48029 4019 ft 7 kts 251°
2026-04-16 13:35 -24.84535 -65.48082 4019 ft 8 kts 251°
2026-04-16 13:35 -24.84553 -65.48143 4020 ft 9 kts 252°
2026-04-16 13:35 -24.84573 -65.48212 4019 ft 10 kts 252°
2026-04-16 13:35 -24.84595 -65.48289 4020 ft 11 kts 251°
2026-04-16 13:36 -24.84642 -65.48359 4019 ft 12 kts 223°
2026-04-16 13:36 -24.84707 -65.48424 4019 ft 13 kts 217°
2026-04-16 13:36 -24.84906 -65.48478 4021 ft 61 kts 191°
2026-04-16 13:36 -24.85531 -65.48612 4021 ft 121 kts 191°
2026-04-16 13:37 -24.86520 -65.48828 4018 ft 168 kts 191°
2026-04-16 13:37 -24.87619 -65.49076 4733 ft 142 kts 192°
2026-04-16 13:37 -24.88707 -65.49317 4829 ft 182 kts 189°
2026-04-16 13:37 -24.90017 -65.49594 5165 ft 194 kts 191°
2026-04-16 13:38 -24.91325 -65.49880 5810 ft 193 kts 191°
2026-04-16 13:38 -24.92695 -65.50180 6174 ft 211 kts 190°
2026-04-16 13:38 -24.94197 -65.50511 6461 ft 230 kts 191°
2026-04-16 13:38 -24.95843 -65.50874 6744 ft 253 kts 191°
2026-04-16 13:39 -24.97639 -65.50955 7154 ft 265 kts 169°
2026-04-16 13:39 -24.99435 -65.50531 7892 ft 266 kts 167°
2026-04-16 13:39 -25.01267 -65.50098 8569 ft 272 kts 167°
2026-04-16 13:39 -25.03115 -65.49651 9427 ft 275 kts 167°
2026-04-16 13:40 -25.05036 -65.49181 9954 ft 292 kts 167°
2026-04-16 13:40 -25.07075 -65.48677 10349 ft 311 kts 167°
2026-04-16 13:40 -25.09250 -65.48138 10695 ft 330 kts 167°
2026-04-16 13:40 -25.11535 -65.47570 11169 ft 343 kts 168°
2026-04-16 13:41 -25.13868 -65.46989 11943 ft 344 kts 168°
2026-04-16 13:41 -25.16207 -65.46406 12714 ft 347 kts 168°
2026-04-16 13:41 -25.18565 -65.45819 13475 ft 349 kts 169°
2026-04-16 13:41 -25.20937 -65.45228 14182 ft 352 kts 169°
2026-04-16 13:42 -25.23333 -65.44631 14805 ft 356 kts 170°
2026-04-16 13:42 -25.25750 -65.44028 15468 ft 358 kts 170°
2026-04-16 13:42 -25.28186 -65.43420 16106 ft 361 kts 171°
2026-04-16 13:42 -25.30646 -65.42805 16720 ft 365 kts 171°
2026-04-16 13:43 -25.33127 -65.42185 17325 ft 368 kts 171°
2026-04-16 13:43 -25.35630 -65.41558 17922 ft 371 kts 172°
2026-04-16 13:43 -25.38157 -65.40927 18512 ft 375 kts 172°
2026-04-16 13:43 -25.40704 -65.40289 19002 ft 378 kts 172°
2026-04-16 13:44 -25.43278 -65.39645 19485 ft 382 kts 172°
2026-04-16 13:44 -25.45875 -65.38995 19974 ft 385 kts 172°
2026-04-16 13:44 -25.48494 -65.38339 20447 ft 389 kts 172°
2026-04-16 13:44 -25.51137 -65.37676 20935 ft 392 kts 172°
2026-04-16 13:45 -25.53804 -65.37007 21389 ft 396 kts 172°
2026-04-16 13:45 -25.56498 -65.36331 21852 ft 399 kts 172°
2026-04-16 13:45 -25.59210 -65.35650 22326 ft 402 kts 172°
2026-04-16 13:45 -25.61946 -65.34964 22774 ft 406 kts 172°
2026-04-16 13:46 -25.64702 -65.34272 23219 ft 409 kts 172°
2026-04-16 13:46 -25.67483 -65.33573 23651 ft 412 kts 172°
2026-04-16 13:46 -25.70283 -65.32869 24034 ft 415 kts 172°
2026-04-16 13:46 -25.73103 -65.32160 24425 ft 418 kts 172°
2026-04-16 13:47 -25.75925 -65.31375 24802 ft 424 kts 166°
2026-04-16 13:47 -25.78717 -65.30292 25223 ft 426 kts 166°
2026-04-16 13:47 -25.81527 -65.29231 25612 ft 429 kts 167°
2026-04-16 13:47 -25.84364 -65.28178 25876 ft 433 kts 167°
2026-04-16 13:48 -25.87227 -65.27123 26218 ft 435 kts 167°
2026-04-16 13:48 -25.90102 -65.26069 26605 ft 437 kts 167°
2026-04-16 13:48 -25.92987 -65.25010 26997 ft 439 kts 167°
2026-04-16 13:48 -25.95893 -65.23944 27347 ft 442 kts 167°
2026-04-16 13:49 -25.98816 -65.22870 27729 ft 445 kts 168°
2026-04-16 13:49 -26.01757 -65.21789 28061 ft 448 kts 168°
2026-04-16 13:49 -26.04718 -65.20701 28394 ft 450 kts 168°
2026-04-16 13:49 -26.07697 -65.19605 28733 ft 453 kts 168°
2026-04-16 13:50 -26.10690 -65.18504 29066 ft 456 kts 168°
2026-04-16 13:50 -26.13709 -65.17392 29384 ft 459 kts 168°
2026-04-16 13:50 -26.16741 -65.16275 29722 ft 462 kts 168°
2026-04-16 13:50 -26.19792 -65.15150 30066 ft 464 kts 168°
2026-04-16 13:51 -26.22856 -65.14020 30348 ft 467 kts 168°
2026-04-16 13:51 -26.25942 -65.12881 30648 ft 469 kts 169°
2026-04-16 13:51 -26.29033 -65.11740 30940 ft 471 kts 169°
2026-04-16 13:51 -26.32145 -65.10590 31220 ft 473 kts 169°
2026-04-16 13:52 -26.35271 -65.09434 31511 ft 475 kts 169°
2026-04-16 13:52 -26.38411 -65.08272 31773 ft 478 kts 169°
2026-04-16 13:52 -26.41568 -65.07104 32049 ft 480 kts 169°
2026-04-16 13:52 -26.44735 -65.05932 32279 ft 482 kts 169°
2026-04-16 13:53 -26.47916 -65.04752 32536 ft 483 kts 169°
2026-04-16 13:53 -26.51108 -65.03569 32815 ft 486 kts 169°
2026-04-16 13:53 -26.54314 -65.02380 33151 ft 486 kts 169°
2026-04-16 13:53 -26.57519 -65.01190 33521 ft 487 kts 169°
2026-04-16 13:54 -26.60725 -65.00000 33889 ft 486 kts 170°
2026-04-16 13:54 -26.63923 -64.98812 34174 ft 486 kts 170°
2026-04-16 13:54 -26.67122 -64.97622 34468 ft 485 kts 170°
2026-04-16 13:54 -26.70315 -64.96433 34742 ft 485 kts 170°
2026-04-16 13:55 -26.73512 -64.95243 35008 ft 485 kts 169°
2026-04-16 13:55 -26.76706 -64.94053 35268 ft 485 kts 169°
2026-04-16 13:55 -26.79899 -64.92862 35522 ft 485 kts 169°
2026-04-16 13:55 -26.83092 -64.91672 35770 ft 485 kts 169°
2026-04-16 13:56 -26.86286 -64.90480 36017 ft 485 kts 169°
2026-04-16 13:56 -26.89474 -64.89285 36257 ft 485 kts 169°
2026-04-16 13:56 -26.92665 -64.88088 36500 ft 484 kts 169°
2026-04-16 13:56 -26.95849 -64.86895 36754 ft 483 kts 169°
2026-04-16 13:57 -26.99033 -64.85700 36963 ft 484 kts 169°
2026-04-16 13:57 -27.05404 -64.83307 36986 ft 483 kts 169°
2026-04-16 13:58 -27.14925 -64.79726 36998 ft 482 kts 169°
2026-04-16 13:58 -27.21275 -64.77333 37008 ft 482 kts 169°
2026-04-16 13:59 -27.27626 -64.74937 37007 ft 483 kts 169°
2026-04-16 13:59 -27.33981 -64.72537 37015 ft 483 kts 169°
2026-04-16 14:00 -27.40341 -64.70132 37015 ft 483 kts 169°
2026-04-16 14:00 -27.46703 -64.67724 37014 ft 484 kts 169°
2026-04-16 14:01 -27.53055 -64.65225 37001 ft 490 kts 161°
2026-04-16 14:01 -27.59002 -64.61316 36991 ft 498 kts 156°
2026-04-16 14:02 -27.64945 -64.57346 37002 ft 498 kts 155°
2026-04-16 14:02 -27.70885 -64.53355 36994 ft 498 kts 155°
2026-04-16 14:03 -27.76822 -64.49358 37003 ft 498 kts 155°
2026-04-16 14:03 -27.81771 -64.46022 37003 ft 498 kts 155°
2026-04-16 14:04 -27.87708 -64.42017 36999 ft 498 kts 155°
2026-04-16 14:04 -27.93643 -64.38008 36999 ft 498 kts 155°
2026-04-16 14:05 -27.99576 -64.33994 36996 ft 498 kts 155°
2026-04-16 14:05 -28.05519 -64.29969 37001 ft 499 kts 155°
2026-04-16 14:06 -28.11458 -64.25941 36998 ft 499 kts 155°
2026-04-16 14:06 -28.17400 -64.21907 36996 ft 499 kts 155°
2026-04-16 14:07 -28.23337 -64.17870 36998 ft 499 kts 155°
2026-04-16 14:07 -28.29276 -64.13828 36996 ft 499 kts 155°
2026-04-16 14:08 -28.35215 -64.09780 36991 ft 499 kts 155°
2026-04-16 14:08 -28.41152 -64.05729 36993 ft 499 kts 155°
2026-04-16 14:09 -28.47090 -64.01672 36993 ft 499 kts 154°
2026-04-16 14:09 -28.53024 -63.97613 36992 ft 499 kts 154°
2026-04-16 14:10 -28.58955 -63.93549 36995 ft 499 kts 154°
2026-04-16 14:10 -28.64893 -63.89476 36994 ft 499 kts 154°
2026-04-16 14:11 -28.70826 -63.85401 37001 ft 499 kts 154°
2026-04-16 14:11 -28.76753 -63.81325 36989 ft 499 kts 154°
2026-04-16 14:12 -28.82679 -63.77222 36990 ft 499 kts 154°
2026-04-16 14:12 -28.88601 -63.73107 36992 ft 500 kts 154°
2026-04-16 14:13 -28.94523 -63.68986 36989 ft 499 kts 154°
2026-04-16 14:13 -29.00442 -63.64863 36990 ft 499 kts 154°
2026-04-16 14:14 -29.06361 -63.60734 36987 ft 500 kts 154°
2026-04-16 14:14 -29.12281 -63.56595 36987 ft 500 kts 154°
2026-04-16 14:15 -29.18200 -63.52453 36987 ft 500 kts 154°
2026-04-16 14:15 -29.24116 -63.48306 36985 ft 499 kts 154°
2026-04-16 14:16 -29.30028 -63.44156 36980 ft 499 kts 153°
2026-04-16 14:16 -29.35934 -63.40005 36982 ft 499 kts 153°
2026-04-16 14:17 -29.41838 -63.35850 36985 ft 499 kts 153°
2026-04-16 14:17 -29.47739 -63.31679 36982 ft 499 kts 153°
2026-04-16 14:18 -29.53629 -63.27502 36982 ft 499 kts 153°
2026-04-16 14:18 -29.59518 -63.23321 36980 ft 499 kts 153°
2026-04-16 14:19 -29.65405 -63.19136 36981 ft 498 kts 153°
2026-04-16 14:19 -29.71289 -63.14947 36977 ft 498 kts 153°
2026-04-16 14:20 -29.77169 -63.10755 36981 ft 498 kts 153°
2026-04-16 14:20 -29.83041 -63.06563 36980 ft 498 kts 153°
2026-04-16 14:21 -29.88913 -63.02365 36973 ft 498 kts 153°
2026-04-16 14:21 -29.94786 -62.98161 36973 ft 498 kts 153°
2026-04-16 14:22 -30.00652 -62.93955 36969 ft 498 kts 153°
2026-04-16 14:22 -30.06519 -62.89742 36972 ft 498 kts 153°
2026-04-16 14:23 -30.12385 -62.85526 36970 ft 497 kts 153°
2026-04-16 14:23 -30.18246 -62.81306 36973 ft 497 kts 153°
2026-04-16 14:24 -30.24102 -62.77083 36974 ft 497 kts 153°
2026-04-16 14:24 -30.29958 -62.72856 36972 ft 497 kts 153°
2026-04-16 14:25 -30.35813 -62.68624 36969 ft 497 kts 153°
2026-04-16 14:25 -30.41666 -62.64387 36966 ft 497 kts 153°
2026-04-16 14:26 -30.47515 -62.60148 36966 ft 497 kts 152°
2026-04-16 14:26 -30.53361 -62.55905 36963 ft 497 kts 152°
2026-04-16 14:27 -30.59204 -62.51658 36963 ft 497 kts 152°
2026-04-16 14:27 -30.65050 -62.47404 36956 ft 497 kts 152°
2026-04-16 14:28 -30.70891 -62.43145 36958 ft 497 kts 152°
2026-04-16 14:28 -30.76727 -62.38886 36951 ft 497 kts 152°
2026-04-16 14:29 -30.82578 -62.34640 36955 ft 496 kts 152°
2026-04-16 14:29 -30.88419 -62.30395 36950 ft 496 kts 152°
2026-04-16 14:30 -30.94266 -62.26139 36946 ft 496 kts 152°
2026-04-16 14:30 -31.00104 -62.21884 36947 ft 496 kts 152°
2026-04-16 14:31 -31.05947 -62.17622 36945 ft 496 kts 152°
2026-04-16 14:31 -31.11789 -62.13357 36943 ft 496 kts 152°
2026-04-16 14:32 -31.17628 -62.09088 36944 ft 496 kts 152°
2026-04-16 14:32 -31.23445 -62.04780 36943 ft 496 kts 152°
2026-04-16 14:33 -31.29260 -62.00464 36941 ft 496 kts 151°
2026-04-16 14:33 -31.35076 -61.96141 36939 ft 496 kts 151°
2026-04-16 14:34 -31.40890 -61.91814 36933 ft 496 kts 151°
2026-04-16 14:34 -31.46701 -61.87482 36934 ft 496 kts 151°
2026-04-16 14:35 -31.52506 -61.83149 36928 ft 496 kts 151°
2026-04-16 14:35 -31.58312 -61.78808 36928 ft 496 kts 151°
2026-04-16 14:36 -31.64112 -61.74465 36925 ft 495 kts 151°
2026-04-16 14:36 -31.69908 -61.70119 36923 ft 495 kts 150°
2026-04-16 14:37 -31.75697 -61.65772 36919 ft 495 kts 150°
2026-04-16 14:37 -31.81482 -61.61421 36925 ft 495 kts 150°
2026-04-16 14:38 -31.87271 -61.57060 36921 ft 494 kts 150°
2026-04-16 14:38 -31.93046 -61.52702 36918 ft 494 kts 150°
2026-04-16 14:39 -31.98817 -61.48340 36902 ft 494 kts 150°
2026-04-16 14:39 -32.04585 -61.43974 36916 ft 494 kts 150°
2026-04-16 14:40 -32.10344 -61.39608 36904 ft 493 kts 150°
2026-04-16 14:40 -32.16103 -61.35236 36906 ft 493 kts 150°
2026-04-16 14:41 -32.21861 -61.30858 36912 ft 493 kts 150°
2026-04-16 14:41 -32.27614 -61.26477 36910 ft 493 kts 150°
2026-04-16 14:42 -32.33367 -61.22088 36901 ft 493 kts 150°
2026-04-16 14:42 -32.39112 -61.17700 36902 ft 493 kts 149°
2026-04-16 14:43 -32.44857 -61.13305 36896 ft 493 kts 149°
2026-04-16 14:43 -32.50600 -61.08905 36901 ft 492 kts 149°
2026-04-16 14:44 -32.56334 -61.04504 36899 ft 492 kts 149°
2026-04-16 14:44 -32.62074 -61.00093 36889 ft 492 kts 149°
2026-04-16 14:45 -32.67808 -60.95679 36891 ft 492 kts 149°
2026-04-16 14:45 -32.73543 -60.91257 36884 ft 492 kts 149°
2026-04-16 14:46 -32.79267 -60.86837 36885 ft 492 kts 149°
2026-04-16 14:46 -32.84995 -60.82407 36885 ft 492 kts 149°
2026-04-16 14:47 -32.90749 -60.78035 36882 ft 490 kts 153°
2026-04-16 14:47 -32.96672 -60.74032 36887 ft 491 kts 152°
2026-04-16 14:48 -33.02543 -60.69979 36526 ft 484 kts 152°
2026-04-16 14:48 -33.05450 -60.67967 35868 ft 484 kts 152°
2026-04-16 14:48 -33.08355 -60.65954 35290 ft 483 kts 152°
2026-04-16 14:49 -33.11243 -60.63950 34803 ft 479 kts 152°
2026-04-16 14:49 -33.14106 -60.61963 34318 ft 476 kts 152°
2026-04-16 14:49 -33.16961 -60.59980 33803 ft 474 kts 152°
2026-04-16 14:49 -33.19801 -60.58005 33211 ft 472 kts 152°
2026-04-16 14:50 -33.22628 -60.56039 32697 ft 469 kts 152°
2026-04-16 14:50 -33.25431 -60.54087 32218 ft 466 kts 152°
2026-04-16 14:50 -33.28212 -60.52149 31729 ft 463 kts 152°
2026-04-16 14:50 -33.30979 -60.50220 31249 ft 460 kts 152°
2026-04-16 14:51 -33.33728 -60.48302 30754 ft 458 kts 152°
2026-04-16 14:51 -33.36464 -60.46391 30274 ft 455 kts 152°
2026-04-16 14:51 -33.39190 -60.44486 29759 ft 453 kts 152°
2026-04-16 14:51 -33.41903 -60.42589 29210 ft 451 kts 152°
2026-04-16 14:53 -33.60328 -60.29666 25951 ft 430 kts 152°
2026-04-16 14:53 -33.62896 -60.27860 25495 ft 427 kts 152°
2026-04-16 14:54 -33.65447 -60.26064 25039 ft 425 kts 152°
2026-04-16 14:54 -33.67986 -60.24276 24597 ft 423 kts 152°
2026-04-16 14:54 -33.70511 -60.22496 24166 ft 421 kts 152°
2026-04-16 14:54 -33.73023 -60.20724 23730 ft 419 kts 152°
2026-04-16 14:55 -33.75524 -60.18959 23271 ft 417 kts 152°
2026-04-16 14:55 -33.78009 -60.17204 22783 ft 414 kts 152°
2026-04-16 14:55 -33.80481 -60.15458 22358 ft 410 kts 152°
2026-04-16 14:55 -33.82902 -60.13692 21919 ft 408 kts 146°
2026-04-16 14:56 -33.84909 -60.11288 21444 ft 410 kts 127°
2026-04-16 14:56 -33.86485 -60.08468 21125 ft 404 kts 126°
2026-04-16 14:56 -33.88064 -60.05690 20737 ft 401 kts 126°
2026-04-16 14:56 -33.89618 -60.02928 20353 ft 398 kts 126°
2026-04-16 14:57 -33.91155 -60.00184 19971 ft 395 kts 126°
2026-04-16 14:57 -33.92679 -59.97458 19593 ft 392 kts 126°
2026-04-16 14:57 -33.94190 -59.94750 19222 ft 389 kts 126°
2026-04-16 14:57 -33.95689 -59.92060 18851 ft 386 kts 126°
2026-04-16 14:58 -33.97179 -59.89387 18486 ft 384 kts 126°
2026-04-16 14:58 -34.00127 -59.84090 17707 ft 379 kts 126°
2026-04-16 14:58 -34.01582 -59.81473 17332 ft 375 kts 126°
2026-04-16 14:59 -34.03023 -59.78879 16973 ft 371 kts 126°
2026-04-16 14:59 -34.04447 -59.76313 16622 ft 367 kts 126°
2026-04-16 14:59 -34.05859 -59.73768 16273 ft 364 kts 126°
2026-04-16 14:59 -34.07252 -59.71255 15926 ft 360 kts 126°
2026-04-16 15:00 -34.08637 -59.68755 15581 ft 357 kts 126°
2026-04-16 15:00 -34.10005 -59.66285 15241 ft 353 kts 126°
2026-04-16 15:00 -34.11360 -59.63835 14896 ft 350 kts 126°
2026-04-16 15:00 -34.12704 -59.61402 14550 ft 347 kts 126°
2026-04-16 15:01 -34.14036 -59.58991 14233 ft 344 kts 126°
2026-04-16 15:01 -34.15356 -59.56602 13901 ft 342 kts 126°
2026-04-16 15:01 -34.16666 -59.54227 13553 ft 339 kts 127°
2026-04-16 15:01 -34.17965 -59.51872 13191 ft 336 kts 127°
2026-04-16 15:02 -34.19250 -59.49539 12859 ft 333 kts 126°
2026-04-16 15:02 -34.20523 -59.47229 12532 ft 329 kts 127°
2026-04-16 15:02 -34.21766 -59.44931 12200 ft 327 kts 122°
2026-04-16 15:02 -34.22496 -59.42338 11829 ft 330 kts 102°
2026-04-16 15:03 -34.22896 -59.39651 11538 ft 319 kts 104°
2026-04-16 15:03 -34.23297 -59.37079 11261 ft 306 kts 104°
2026-04-16 15:03 -34.23678 -59.34608 10977 ft 294 kts 104°
2026-04-16 15:03 -34.24046 -59.32209 10700 ft 293 kts 104°
2026-04-16 15:04 -34.24418 -59.29766 10445 ft 296 kts 104°
2026-04-16 15:04 -34.24790 -59.27324 10295 ft 296 kts 104°
2026-04-16 15:04 -34.25161 -59.24882 10089 ft 295 kts 104°
2026-04-16 15:04 -34.25527 -59.22476 9967 ft 287 kts 104°
2026-04-16 15:05 -34.25880 -59.20139 9800 ft 281 kts 104°
2026-04-16 15:05 -34.26229 -59.17833 9508 ft 278 kts 104°
2026-04-16 15:05 -34.26574 -59.15546 9204 ft 277 kts 104°
2026-04-16 15:05 -34.26918 -59.13270 8916 ft 274 kts 104°
2026-04-16 15:06 -34.27257 -59.11019 8628 ft 272 kts 104°
2026-04-16 15:06 -34.27594 -59.08784 8353 ft 269 kts 104°
2026-04-16 15:06 -34.27926 -59.06570 8081 ft 267 kts 104°
2026-04-16 15:06 -34.28256 -59.04377 7805 ft 265 kts 104°
2026-04-16 15:07 -34.28581 -59.02201 7556 ft 262 kts 104°
2026-04-16 15:07 -34.28902 -59.00060 7355 ft 256 kts 104°
2026-04-16 15:07 -34.29215 -58.97967 7154 ft 253 kts 104°
2026-04-16 15:07 -34.29533 -58.95850 6908 ft 260 kts 104°
2026-04-16 15:08 -34.29855 -58.93685 6638 ft 263 kts 104°
2026-04-16 15:08 -34.30178 -58.91514 6373 ft 264 kts 104°
2026-04-16 15:08 -34.30502 -58.89333 6103 ft 264 kts 104°
2026-04-16 15:08 -34.30825 -58.87161 5812 ft 262 kts 104°
2026-04-16 15:09 -34.31141 -58.85027 5537 ft 260 kts 103°
2026-04-16 15:09 -34.31462 -58.82868 5321 ft 255 kts 104°
2026-04-16 15:09 -34.31768 -58.80795 5197 ft 246 kts 103°
2026-04-16 15:09 -34.32064 -58.78801 5094 ft 237 kts 104°
2026-04-16 15:10 -34.32404 -58.76884 5002 ft 231 kts 115°
2026-04-16 15:10 -34.33299 -58.75334 4806 ft 225 kts 136°
2026-04-16 15:10 -34.34366 -58.73954 4627 ft 224 kts 135°
2026-04-16 15:10 -34.35432 -58.72585 4458 ft 225 kts 136°
2026-04-16 15:11 -34.36505 -58.71221 4305 ft 221 kts 136°
2026-04-16 15:11 -34.37550 -58.69902 4138 ft 215 kts 135°
2026-04-16 15:11 -34.38572 -58.68621 3947 ft 208 kts 135°
2026-04-16 15:11 -34.39560 -58.67386 3797 ft 200 kts 135°
2026-04-16 15:12 -34.40507 -58.66203 3652 ft 192 kts 135°
2026-04-16 15:12 -34.41421 -58.65065 3505 ft 186 kts 136°
2026-04-16 15:12 -34.42291 -58.63981 3400 ft 174 kts 136°
2026-04-16 15:12 -34.43111 -58.62958 3274 ft 166 kts 136°
2026-04-16 15:13 -34.43905 -58.61968 3186 ft 164 kts 136°
2026-04-16 15:13 -34.44674 -58.61015 3119 ft 155 kts 136°
2026-04-16 15:13 -34.45399 -58.60043 3044 ft 156 kts 133°
2026-04-16 15:13 -34.46072 -58.59036 3052 ft 151 kts 131°
2026-04-16 15:14 -34.46687 -58.58033 2919 ft 145 kts 129°
2026-04-16 15:14 -34.47258 -58.57058 2739 ft 140 kts 128°
2026-04-16 15:14 -34.47816 -58.56088 2579 ft 141 kts 128°
2026-04-16 15:14 -34.48369 -58.55110 2424 ft 139 kts 127°
2026-04-16 15:15 -34.48911 -58.54148 2270 ft 138 kts 128°
2026-04-16 15:15 -34.49456 -58.53175 2085 ft 141 kts 128°
2026-04-16 15:15 -34.50006 -58.52189 1884 ft 141 kts 127°
2026-04-16 15:15 -34.50550 -58.51215 1709 ft 138 kts 128°
2026-04-16 15:16 -34.51080 -58.50262 1525 ft 136 kts 130°
2026-04-16 15:16 -34.51610 -58.49313 1343 ft 137 kts 130°
2026-04-16 15:16 -34.52140 -58.48361 1158 ft 136 kts 129°
2026-04-16 15:16 -34.52667 -58.47418 980 ft 136 kts 128°
2026-04-16 15:17 -34.53205 -58.46450 802 ft 140 kts 128°
2026-04-16 15:17 -34.53755 -58.45466 632 ft 142 kts 126°
2026-04-16 15:17 -34.54319 -58.44476 412 ft 143 kts 128°
2026-04-16 15:17 -34.54859 -58.43461 190 ft 145 kts 126°
2026-04-16 15:18 -34.55424 -58.42467 40 ft 140 kts 125°
2026-04-16 15:18 -34.55904 -58.41616 27 ft 94 kts 124°
2026-04-16 15:18 -34.56119 -58.41232 28 ft 21 kts 123°
2026-04-16 15:18 -34.56187 -58.41103 29 ft 16 kts 115°
2026-04-16 15:19 -34.56166 -58.41008 28 ft 8 kts 60°
2026-04-16 15:19 -34.56128 -58.40987 28 ft 6 kts 338°
2026-04-16 15:19 -34.56097 -58.41023 28 ft 7 kts 310°
2026-04-16 15:19 -34.56071 -58.41064 28 ft 5 kts 305°
2026-04-16 15:20 -34.56052 -58.41098 28 ft 5 kts 306°
2026-04-16 15:20 -34.56026 -58.41136 28 ft 6 kts 309°
2026-04-16 15:20 -34.55997 -58.41183 28 ft 8 kts 307°
2026-04-16 15:20 -34.55963 -58.41237 28 ft 9 kts 306°
2026-04-16 15:21 -34.55925 -58.41297 28 ft 9 kts 321°
2026-04-16 15:21 -34.55872 -58.41284 28 ft 8 kts 27°
2026-04-16 15:21 -34.55828 -58.41299 28 ft 6 kts 308°
2026-04-16 15:21 -34.55807 -58.41341 28 ft 6 kts 303°
2026-04-16 15:22 -34.55780 -58.41388 28 ft 7 kts 304°
2026-04-16 15:22 -34.55751 -58.41423 28 ft 3 kts 351°
2026-04-16 15:22 -34.55732 -58.41415 28 ft 2 kts 33°
2026-04-16 15:22 -34.55723 -58.41408 28 ft 0 kts 32°
2026-04-16 15:23 -34.55719 -58.41405 28 ft 1 kts 32°
2026-04-16 15:23 -34.55718 -58.41405 28 ft 0 kts 32°
2026-04-16 15:42 0.00041 0.01397 11 ft 0 kts